Location: Hopewell Observatory
(38.8698°N, 77.6988°W)
Time: 04:23:19
(UTC-05:00)

Amateur Radio Satellites - All Passes

Search period start: 30 January 2015 03:53
Search period end: 31 January 2015 03:53
Location: Hopewell Observatory, 38.8698°N, 77.6988°W

Satellite Date Start Highest point End Downlink Frequencies (MHz)
Time Altitude Azimuth
ITAMSAT 1 30 Jan 04:07:09 04:10:11 15° 297° (WNW) 04:13:01 435.822/435.867
ISS 30 Jan 04:35:38 04:38:55 63° 221° (SW) 04:42:10 145.825
PCSat 30 Jan 04:36:37 04:41:59 63° 301° (WNW) 04:47:23 145.827
JAS-2 30 Jan 04:37:25 04:43:02 52° 100° (E) 04:49:23 435.910
HORYU 2 30 Jan 04:44:05 04:47:27 21° 292° (WNW) 04:50:42 437.375
MOZHAYETS 4 30 Jan 04:45:19 04:49:43 45° 262° (W) 04:54:07
PRISM 30 Jan 04:46:42 04:49:22 17° 68° (ENE) 04:52:11 437.425
CUBESAT XI-V 30 Jan 05:04:11 05:07:29 20° 68° (ENE) 05:10:56 437.345
DANDE 30 Jan 05:04:33 05:12:36 54° 286° (WNW) 05:21:02 436.750
AO-7 30 Jan 05:18:10 05:26:18 58° 293° (WNW) 05:34:19 29.400- 29.500
STRAND 1 30 Jan 05:30:15 05:34:37 30° 69° (ENE) 05:39:05 437.568
CUSAT 1 30 Jan 05:30:28 05:37:48 32° 292° (WNW) 05:45:01 437.405
RS-15 30 Jan 05:52:10 06:02:59 62° 308° (NW) 06:13:53 29.354- 29.394
Cubesat XI-IV 30 Jan 06:15:07 06:20:23 54° 100° (E) 06:25:39 437.490
YUBILEINY 30 Jan 06:15:19 06:23:47 51° 76° (ENE) 06:32:18 435.215
PRISM 30 Jan 06:20:53 06:24:41 35° 262° (W) 06:28:28 437.425
JAS-2 30 Jan 06:23:31 06:27:57 23° 293° (WNW) 06:32:35 435.910
PCSat 30 Jan 06:25:00 06:26:37 11° 322° (NW) 06:27:59 145.827
CUTE-I 30 Jan 06:34:45 06:40:10 82° 102° (ESE) 06:45:34 437.470
CUBESAT XI-V 30 Jan 06:40:27 06:44:44 37° 263° (W) 06:49:01 437.345
DANDE 30 Jan 06:55:40 06:58:18 11° 307° (NW) 07:00:14 436.750
STRAND 1 30 Jan 07:09:20 07:13:48 30° 264° (W) 07:18:14 437.568
AO-7 30 Jan 07:14:23 07:17:30 12° 312° (NW) 07:20:07 29.400- 29.500
VERMONT LUNAR 30 Jan 07:17:09 07:19:36 18° 148° (SSE) 07:22:07 437.305
Cubesat XI-IV 30 Jan 07:56:17 08:00:07 19° 295° (WNW) 08:03:46 437.490
HO-68 30 Jan 08:07:20 08:13:10 28° 94° (E) 08:19:11 435.675
CUTE 1.7 + AOD 2 30 Jan 08:08:51 08:11:33 17° 91° (E) 08:14:24 437.475
RS-15 30 Jan 08:10:16 08:18:22 22° 338° (NNW) 08:26:21 29.354- 29.394
GOMX 1 30 Jan 08:10:17 08:14:23 23° 91° (E) 08:18:28 467.674
YUBILEINY 30 Jan 08:12:42 08:20:21 34° 274° (W) 08:27:48 435.215
CUTE-I 30 Jan 08:17:04 08:19:38 13° 298° (WNW) 08:21:56 437.470
DOVE 4 30 Jan 08:18:17 08:21:43 18° 89° (E) 08:25:13 437.250
BRITE-PL 30 Jan 08:19:11 08:24:29 41° 96° (E) 08:29:34 437.365/2234.400
PHONESAT 2.4 30 Jan 08:21:03 08:24:14 30° 152° (SSE) 08:27:27 2401.200-2431.200
SEEDS 30 Jan 08:37:20 08:41:01 30° 96° (E) 08:44:45 437.485
SO-50 30 Jan 08:46:52 08:48:13 11° 108° (ESE) 08:49:52 436.795
ANTELSAT 30 Jan 08:51:22 08:54:05 16° 66° (ENE) 08:56:58 437.575/2403.000
VERMONT LUNAR 30 Jan 08:53:55 08:57:23 73° 163° (SSE) 09:00:52 437.305
TIGRISAT 30 Jan 08:58:05 09:01:09 18° 67° (ENE) 09:04:23 435.000
COMPASS 1 30 Jan 09:02:09 09:06:12 49° 99° (E) 09:10:15 437.405
CUBEBUG 2 30 Jan 09:03:42 09:06:16 15° 89° (E) 09:08:59 437.445
ZACube-1 30 Jan 09:08:04 09:09:03 11° 88° (E) 09:10:18 437.345
DX 1 30 Jan 09:12:01 09:14:26 15° 91° (E) 09:17:03 434.975-435.025
QB50P2 30 Jan 09:12:09 09:14:15 14° 66° (ENE) 09:16:33 145.880/145.840
DELFI C3 30 Jan 09:17:30 09:20:44 23° 94° (E) 09:24:02 145.870
FUNcube-1 30 Jan 09:18:29 09:20:50 15° 90° (E) 09:23:21 145.935
CANX-2 30 Jan 09:19:32 09:23:43 63° 285° (WNW) 09:27:52 2200.000
QB50P1 30 Jan 09:20:29 09:23:09 17° 67° (ENE) 09:25:59 145.935-145.965
BUGSAT 1 30 Jan 09:27:15 09:29:25 14° 66° (ENE) 09:31:47 437.445
AAUSAT CUBESAT 2 30 Jan 09:27:35 09:31:45 88° 102° (ESE) 09:35:54 437.432
CINEMA 3 30 Jan 09:33:52 09:38:39 60° 100° (E) 09:43:11 145.822/145.860
POLYITAN 1 30 Jan 09:35:07 09:38:35 25° 69° (ENE) 09:42:08 437.675
UWE-3 30 Jan 09:40:25 09:44:26 32° 96° (E) 09:48:22 435.000/436.395/437.385
AISAT 30 Jan 09:42:12 09:43:50 12° 89° (E) 09:45:45 437.250
CUTE 1.7 + AOD 2 30 Jan 09:43:47 09:47:41 36° 288° (WNW) 09:51:31 437.475
GOMX 1 30 Jan 09:47:37 09:52:45 43° 289° (WNW) 09:57:34 467.674
Oscar 11 30 Jan 09:48:32 09:52:51 71° 101° (E) 09:57:08 145.826/435.025
UNISAT 6 30 Jan 09:49:43 09:54:22 63° 75° (ENE) 09:59:02 437.425
POPSAT HIP 1 30 Jan 09:53:59 09:57:57 38° 72° (ENE) 10:01:59 437.405
HO-68 30 Jan 09:54:20 10:01:15 54° 291° (WNW) 10:08:08 435.675
DOVE 4 30 Jan 09:54:51 09:59:52 48° 287° (WNW) 10:04:34 437.250
DUCHIFAT 1 30 Jan 09:55:59 09:59:57 40° 73° (ENE) 10:04:00 145.980
BRITE-PL 30 Jan 09:58:03 10:02:46 27° 293° (WNW) 10:07:12 437.365/2234.400
PHONESAT 2.4 30 Jan 09:59:00 10:02:37 85° 346° (NNW) 10:06:16 2401.200-2431.200
BEESAT 2 30 Jan 10:00:46 10:03:39 18° 46° (NE) 10:06:36 435.950
50 SAT 30 Jan 10:03:22 10:06:04 18° 92° (E) 10:08:53 437.505
VELOX 1 30 Jan 10:08:19 10:11:52 23° 94° (E) 10:15:31 145.980
BEESAT 3 30 Jan 10:13:23 10:16:53 26° 49° (NE) 10:20:23 437.485
SEEDS 30 Jan 10:13:33 10:16:43 20° 291° (WNW) 10:19:46 437.485
CUBEBUG 1 30 Jan 10:15:37 10:16:29 11° 88° (E) 10:17:39 437.445
SO-50 30 Jan 10:23:39 10:28:12 71° 303° (WNW) 10:32:55 436.795
UKube-1 30 Jan 10:24:29 10:28:52 85° 284° (WNW) 10:33:13 .
GONETS M04 30 Jan 10:25:14 10:27:40 12° 56° (NE) 10:30:50
ANTELSAT 30 Jan 10:25:52 10:30:30 54° 260° (W) 10:35:07 437.575/2403.000
RS-15 30 Jan 10:29:22 10:36:30 19° 13° (NNE) 10:44:00 29.354- 29.394
NANOSAT C BR1 30 Jan 10:30:30 10:34:46 79° 257° (WSW) 10:39:05 145.865
VERMONT LUNAR 30 Jan 10:32:06 10:35:34 64° 359° (N) 10:39:04 437.305
TIGRISAT 30 Jan 10:33:04 10:37:36 46° 261° (W) 10:42:08 435.000
HUMSAT D 30 Jan 10:35:56 10:40:09 62° 101° (E) 10:44:16 437.325/437.525
CUBEBUG 2 30 Jan 10:38:58 10:43:20 45° 287° (WNW) 10:47:31 437.445
COMPASS 1 30 Jan 10:39:30 10:41:34 13° 294° (WNW) 10:43:26 437.405
ZACube-1 30 Jan 10:41:36 10:45:58 60° 285° (WNW) 10:50:11 437.345
QB50P2 30 Jan 10:45:37 10:49:48 51° 260° (W) 10:54:01 145.880/145.840
DX 1 30 Jan 10:46:46 10:51:00 45° 288° (WNW) 10:55:11 434.975-435.025
DELFI C3 30 Jan 10:52:38 10:55:57 24° 290° (WNW) 10:59:12 145.870
FUNcube-1 30 Jan 10:53:19 10:57:32 45° 287° (WNW) 11:01:37 145.935
QB50P1 30 Jan 10:54:44 10:58:46 40° 262° (W) 11:02:50 145.935-145.965
BUGSAT 1 30 Jan 11:00:40 11:04:35 44° 261° (W) 11:08:35 437.445
POLYITAN 1 30 Jan 11:10:45 11:14:27 27° 265° (W) 11:18:07 437.675
CINEMA 3 30 Jan 11:12:42 11:15:20 14° 296° (WNW) 11:17:42 145.822/145.860
AISAT 30 Jan 11:16:29 11:20:56 59° 286° (WNW) 11:25:21 437.250
UWE-3 30 Jan 11:17:22 11:20:49 22° 292° (WNW) 11:24:05 435.000/436.395/437.385
ESTCUBE 1 30 Jan 11:22:48 11:27:19 69° 101° (ESE) 11:31:50 437.505/2401.250
Oscar 11 30 Jan 11:27:52 11:28:31 10° 296° (WNW) 11:28:55 145.826/435.025
AIST 1 30 Jan 11:28:05 11:32:20 72° 278° (W) 11:36:36
UNISAT 6 30 Jan 11:29:33 11:31:39 12° 271° (W) 11:33:29 437.425
SPROUT 30 Jan 11:30:47 11:33:43 18° 92° (E) 11:36:46 437.525
POPSAT HIP 1 30 Jan 11:31:13 11:34:04 17° 268° (W) 11:36:47 437.405
DUCHIFAT 1 30 Jan 11:33:20 11:36:04 16° 269° (W) 11:38:38 145.980
50 SAT 30 Jan 11:37:41 11:41:20 31° 288° (WNW) 11:44:52 437.505
PHONESAT 2.4 30 Jan 11:37:42 11:41:19 68° 5° (N) 11:44:58 2401.200-2431.200
BEESAT 2 30 Jan 11:38:08 11:42:09 46° 244° (WSW) 11:46:05 435.950
AIST 2 30 Jan 11:39:40 11:43:58 72° 58° (ENE) 11:48:10 435.215
PCSat 30 Jan 11:44:18 11:46:45 13° 41° (NE) 11:49:25 145.827
VELOX 1 30 Jan 11:44:32 11:48:30 30° 290° (WNW) 11:52:23 145.980
Oscar 19 30 Jan 11:46:28 11:50:07 20° 66° (ENE) 11:53:57 437.125/150
CUBEBUG 1 30 Jan 11:48:58 11:53:23 64° 285° (WNW) 11:57:47 437.445
BEESAT 3 30 Jan 11:51:24 11:55:01 28° 246° (WSW) 11:58:31 437.485
TISAT 1 30 Jan 12:03:06 12:07:09 40° 98° (E) 12:11:12 437.305
ITAMSAT 1 30 Jan 12:07:52 12:09:04 11° 61° (ENE) 12:10:34 435.822/435.867
SO-50 30 Jan 12:08:10 12:09:44 11° 324° (NW) 12:11:07 436.795
VERMONT LUNAR 30 Jan 12:10:16 12:13:46 79° 198° (SSW) 12:17:18 437.305
HUMSAT D 30 Jan 12:14:07 12:15:28 11° 295° (WNW) 12:16:35 437.325/437.525
GONETS M04 30 Jan 12:18:03 12:26:42 67° 80° (E) 12:35:21
RS-15 30 Jan 12:42:23 12:53:01 45° 45° (NE) 13:04:12 29.354- 29.394
SWISSCUBE 30 Jan 13:00:26 13:04:29 27° 95° (E) 13:08:35 437.505
ESTCUBE 1 30 Jan 13:02:03 13:03:42 12° 296° (WNW) 13:05:07 437.505/2401.250
SPROUT 30 Jan 13:05:58 13:09:59 36° 288° (WNW) 13:13:57 437.525
Gurwin Techsat 1B 30 Jan 13:08:18 13:12:45 29° 68° (ENE) 13:17:18 435.225
BEESAT 30 Jan 13:15:44 13:20:08 36° 97° (E) 13:24:33 436.000
PHONESAT 2.4 30 Jan 13:16:20 13:19:54 55° 201° (SSW) 13:23:29 2401.200-2431.200
ITUPSAT 1 30 Jan 13:20:21 13:24:50 40° 98° (E) 13:29:21 437.325
Oscar 19 30 Jan 13:24:09 13:29:10 48° 261° (W) 13:34:12 437.125/150
PCSat 30 Jan 13:25:43 13:31:10 79° 61° (ENE) 13:36:36 145.827
TISAT 1 30 Jan 13:39:51 13:42:42 17° 293° (WNW) 13:45:24 437.305
ITAMSAT 1 30 Jan 13:42:43 13:47:53 89° 82° (E) 13:53:07 435.822/435.867
VERMONT LUNAR 30 Jan 13:48:52 13:51:36 21° 211° (SSW) 13:54:17 437.305
HORYU 2 30 Jan 14:04:23 14:08:12 28° 70° (ENE) 14:12:05 437.375
DANDE 30 Jan 14:09:55 14:14:21 20° 60° (ENE) 14:18:14 436.750
GONETS M04 30 Jan 14:16:13 14:22:54 24° 277° (W) 14:29:13
AO-7 30 Jan 14:23:37 14:31:04 39° 62° (ENE) 14:38:39 29.400- 29.500
CUSAT 1 30 Jan 14:31:46 14:37:08 33° 68° (ENE) 14:41:19 437.405
SWISSCUBE 30 Jan 14:38:11 14:42:20 29° 291° (WNW) 14:46:25 437.505
STARS 30 Jan 14:43:54 14:48:04 39° 98° (E) 14:52:14 437.465
Gurwin Techsat 1B 30 Jan 14:47:51 14:52:39 34° 264° (W) 14:57:26 435.225
JAS-2 30 Jan 14:51:28 14:54:39 17° 65° (ENE) 14:57:57 435.910
KKS-1 30 Jan 14:52:56 14:57:28 79° 102° (ESE) 15:01:56 437.445
M-CUBED/EXP-1 PRIME 30 Jan 14:53:54 14:55:34 13° 98° (E) 14:57:25 437.505
BEESAT 30 Jan 14:54:04 14:57:49 23° 292° (WNW) 15:01:26 436.000
RS-15 30 Jan 14:54:48 15:05:55 58° 246° (WSW) 15:17:25 29.354- 29.394
PHONESAT 2.4 30 Jan 14:56:11 14:58:02 13° 215° (SW) 14:59:48 2401.200-2431.200
ITUPSAT 1 30 Jan 14:58:53 15:02:30 21° 293° (WNW) 15:06:00 437.325
PCSat 30 Jan 15:11:35 15:14:00 13° 256° (WSW) 15:16:05 145.827
AUBIESAT-1 30 Jan 15:24:53 15:27:52 30° 103° (ESE) 15:31:00 437.475
O/OREOS (USA 219) 30 Jan 15:40:02 15:44:21 49° 107° (ESE) 15:48:44 437.305
HORYU 2 30 Jan 15:41:06 15:44:52 25° 265° (W) 15:48:35 437.375
DANDE 30 Jan 15:52:26 15:58:37 51° 268° (W) 16:03:10 436.750
CUSAT 1 30 Jan 16:15:17 16:19:52 24° 275° (W) 16:23:26 437.405
AO-7 30 Jan 16:15:43 16:23:44 48° 260° (W) 16:31:43 29.400- 29.500
CUTE-I 30 Jan 16:18:29 16:21:17 15° 63° (ENE) 16:24:19 437.470
STARS 30 Jan 16:21:11 16:24:18 18° 293° (WNW) 16:27:16 437.465
M-CUBED/EXP-1 PRIME 30 Jan 16:27:47 16:30:42 28° 292° (WNW) 16:33:41 437.505
KKS-1 30 Jan 16:33:10 16:33:33 10° 297° (WNW) 16:33:38 437.445
JAS-2 30 Jan 16:34:02 16:39:28 57° 259° (W) 16:44:36 435.910
MOZHAYETS 4 30 Jan 16:41:38 16:46:01 45° 98° (E) 16:50:25
AUBIESAT-1 30 Jan 17:00:53 17:02:39 13° 296° (WNW) 17:04:20 437.475
SO-50 30 Jan 17:17:45 17:19:41 12° 37° (NE) 17:21:49 436.795
O/OREOS (USA 219) 30 Jan 17:21:14 17:24:09 16° 305° (NW) 17:26:54 437.305
Cubesat XI-IV 30 Jan 17:35:56 17:41:15 78° 75° (ENE) 17:46:37 437.490
STRAND 1 30 Jan 17:44:37 17:45:29 11° 87° (E) 17:46:45 437.568
JUGNU 30 Jan 17:52:31 17:54:09 11° 177° (S) 17:55:48 437.505
CUTE-I 30 Jan 17:55:32 18:00:50 71° 258° (WSW) 18:06:11 437.470
PRISM 30 Jan 18:04:49 18:08:34 32° 97° (E) 18:12:21 437.425
MOZHAYETS 4 30 Jan 18:19:57 18:22:57 17° 293° (WNW) 18:25:48
HO-68 30 Jan 18:36:12 18:40:49 20° 58° (ENE) 18:45:44 435.675
CUBESAT XI-V 30 Jan 18:38:01 18:42:40 59° 100° (E) 18:47:19 437.345
SO-50 30 Jan 18:56:14 19:01:10 73° 57° (ENE) 19:06:05 436.795
CUTE 1.7 + AOD 2 30 Jan 19:02:19 19:03:46 12° 66° (ENE) 19:05:26 437.475
YUBILEINY 30 Jan 19:14:21 19:22:47 61° 92° (E) 19:31:20 435.215
GOMX 1 30 Jan 19:17:05 19:20:54 22° 66° (ENE) 19:25:00 467.674
Cubesat XI-IV 30 Jan 19:20:05 19:22:05 12° 273° (W) 19:23:43 437.490
STRAND 1 30 Jan 19:20:15 19:25:25 81° 286° (WNW) 19:30:35 437.568
DOVE 4 30 Jan 19:22:45 19:26:04 18° 65° (ENE) 19:29:38 437.250
BRITE-PL 30 Jan 19:28:24 19:33:04 38° 70° (ENE) 19:38:07 437.365/2234.400
SEEDS 30 Jan 19:29:06 19:32:09 20° 69° (ENE) 19:35:18 437.485
PRISM 30 Jan 19:40:53 19:43:55 19° 292° (WNW) 19:46:50 437.425
JUGNU 30 Jan 19:41:33 19:42:16 10° 187° (S) 19:42:57 437.505
COMPASS 1 30 Jan 19:52:44 19:56:23 30° 72° (ENE) 20:00:06 437.405
CUBEBUG 2 30 Jan 20:01:31 20:03:44 14° 65° (ENE) 20:06:12 437.445
DELFI C3 30 Jan 20:05:58 20:07:59 14° 67° (ENE) 20:10:12 145.870
DX 1 30 Jan 20:07:50 20:09:25 12° 64° (ENE) 20:11:14 434.975-435.025
CANX-2 30 Jan 20:11:01 20:15:19 78° 76° (ENE) 20:19:37 2200.000
FUNcube-1 30 Jan 20:14:20 20:15:58 12° 65° (ENE) 20:17:52 145.935
CUBESAT XI-V 30 Jan 20:17:06 20:19:41 14° 295° (WNW) 20:22:04 437.345
AAUSAT CUBESAT 2 30 Jan 20:17:23 20:21:27 50° 74° (ENE) 20:25:32 437.432
HO-68 30 Jan 20:20:40 20:27:50 81° 255° (WSW) 20:35:02 435.675
SRMSAT 30 Jan 20:23:37 20:25:32 12° 182° (S) 20:27:26 437.500
CINEMA 3 30 Jan 20:33:47 20:38:31 49° 73° (ENE) 20:43:25 145.822/145.860
CUTE 1.7 + AOD 2 30 Jan 20:35:01 20:39:16 60° 260° (W) 20:43:32 437.475
UWE-3 30 Jan 20:36:29 20:40:16 26° 70° (ENE) 20:44:12 435.000/436.395/437.385
SO-50 30 Jan 20:38:57 20:41:14 13° 251° (WSW) 20:43:14 436.795
AISAT 30 Jan 20:40:54 20:41:28 10° 63° (ENE) 20:42:18 437.250
Oscar 11 30 Jan 20:42:03 20:46:12 46° 74° (ENE) 20:50:23 145.826/435.025
50 SAT 30 Jan 20:51:44 20:52:38 11° 65° (ENE) 20:53:46 437.505
GOMX 1 30 Jan 20:53:49 20:58:41 46° 263° (W) 21:03:50 467.674
DOVE 4 30 Jan 20:58:25 21:03:22 56° 261° (W) 21:08:34 437.250
SEEDS 30 Jan 21:03:56 21:07:48 33° 264° (W) 21:11:38 437.485
VELOX 1 30 Jan 21:05:37 21:08:40 19° 67° (ENE) 21:11:52 145.980
BRITE-PL 30 Jan 21:07:33 21:11:45 25° 269° (W) 21:16:04 437.365/2234.400
YUBILEINY 30 Jan 21:12:58 21:20:16 28° 292° (WNW) 21:27:21 435.215
ISS 30 Jan 21:14:20 21:17:36 80° 142° (SE) 21:20:53 145.825
UKube-1 30 Jan 21:18:08 21:22:26 69° 75° (ENE) 21:26:46 .
HUMSAT D 30 Jan 21:26:45 21:30:45 38° 72° (ENE) 21:34:49 437.325/437.525
COMPASS 1 30 Jan 21:28:54 21:32:11 21° 267° (W) 21:35:21 437.405
CUBEBUG 2 30 Jan 21:35:14 21:39:57 65° 260° (W) 21:44:44 437.445
ZACube-1 30 Jan 21:35:47 21:40:24 90° 54° (NE) 21:45:03 437.345
AIST 1 30 Jan 21:37:04 21:40:35 24° 74° (ENE) 21:44:10
DELFI C3 30 Jan 21:38:59 21:42:55 45° 261° (W) 21:46:50 145.870
DX 1 30 Jan 21:40:55 21:45:14 62° 259° (W) 21:49:34 434.975-435.025
UNISAT 6 30 Jan 21:45:11 21:47:18 14° 89° (E) 21:49:38 437.425
FUNcube-1 30 Jan 21:47:14 21:51:49 69° 260° (W) 21:56:25 145.935
AAUSAT CUBESAT 2 30 Jan 21:55:34 21:57:28 12° 270° (W) 21:59:09 437.432
UWE-3 30 Jan 22:12:32 22:16:43 31° 265° (W) 22:20:52 435.000/436.395/437.385
CINEMA 3 30 Jan 22:12:38 22:16:04 18° 270° (W) 22:19:21 145.822/145.860
AISAT 30 Jan 22:13:06 22:17:32 76° 258° (WSW) 22:22:02 437.250
HO-68 30 Jan 22:13:54 22:16:47 12° 274° (W) 22:19:06 435.675
NANOSAT C BR1 30 Jan 22:18:04 22:21:02 19° 92° (E) 22:24:07 145.865
ANTELSAT 30 Jan 22:19:50 22:23:51 34° 96° (E) 22:27:48 437.575/2403.000
Oscar 11 30 Jan 22:20:14 22:22:42 14° 270° (W) 22:24:58 145.826/435.025
ESTCUBE 1 30 Jan 22:21:18 22:25:39 54° 74° (ENE) 22:30:04 437.505/2401.250
50 SAT 30 Jan 22:23:12 22:27:18 62° 259° (W) 22:31:25 437.505
SPROUT 30 Jan 22:25:13 22:27:06 13° 66° (ENE) 22:29:11 437.525
TIGRISAT 30 Jan 22:26:30 22:30:39 39° 97° (E) 22:34:43 435.000
QB50P2 30 Jan 22:32:49 22:36:30 28° 95° (E) 22:40:13 145.880/145.840
VELOX 1 30 Jan 22:40:53 22:45:01 38° 262° (W) 22:49:11 145.980
QB50P1 30 Jan 22:41:22 22:45:18 34° 97° (E) 22:49:14 145.935-145.965
CUBEBUG 1 30 Jan 22:43:48 22:48:09 90° 84° (E) 22:52:34 437.445
BUGSAT 1 30 Jan 22:44:31 22:48:14 28° 96° (E) 22:51:58 437.445
ISS 30 Jan 22:52:08 22:54:26 17° 338° (NNW) 22:56:43 145.825
TISAT 1 30 Jan 22:54:46 22:58:18 26° 70° (ENE) 23:01:54 437.305
POLYITAN 1 30 Jan 22:57:06 23:01:20 53° 99° (E) 23:05:33 437.675
HUMSAT D 30 Jan 23:03:43 23:06:44 18° 268° (W) 23:09:37 437.325/437.525
AIST 1 30 Jan 23:14:35 23:18:15 26° 270° (W) 23:21:49
POPSAT HIP 1 30 Jan 23:16:09 23:20:29 88° 101° (E) 23:24:47 437.405
DUCHIFAT 1 30 Jan 23:17:48 23:22:08 89° 284° (WNW) 23:26:24 145.980
UNISAT 6 30 Jan 23:20:13 23:24:30 48° 287° (WNW) 23:28:40 437.425
GONETS M04 30 Jan 23:26:34 23:30:01 14° 78° (ENE) 23:34:10
NANOSAT C BR1 30 Jan 23:53:08 23:57:04 35° 288° (WNW) 00:00:56 145.865
ANTELSAT 30 Jan 23:57:09 00:00:28 20° 292° (WNW) 00:03:36 437.575/2403.000
SPROUT 30 Jan 23:58:33 00:02:47 55° 260° (W) 00:07:03 437.525
ESTCUBE 1 31 Jan 00:00:48 00:02:58 13° 270° (W) 00:04:53 437.505/2401.250
TIGRISAT 31 Jan 00:04:06 00:07:08 18° 293° (WNW) 00:10:00 435.000
SWISSCUBE 31 Jan 00:06:08 00:10:07 28° 69° (ENE) 00:14:13 437.505
QB50P2 31 Jan 00:08:51 00:12:20 24° 291° (WNW) 00:15:43 145.880/145.840
QB50P1 31 Jan 00:17:50 00:21:00 20° 292° (WNW) 00:24:02 145.935-145.965
BUGSAT 1 31 Jan 00:20:11 00:23:37 23° 291° (WNW) 00:26:58 437.445
BEESAT 31 Jan 00:21:12 00:25:32 36° 71° (ENE) 00:29:55 436.000
ITUPSAT 1 31 Jan 00:26:06 00:30:32 40° 71° (ENE) 00:35:00 437.325
TISAT 1 31 Jan 00:30:36 00:34:06 24° 266° (W) 00:37:33 437.305
POLYITAN 1 31 Jan 00:34:42 00:36:53 13° 294° (WNW) 00:38:51 437.675
GONETS M04 31 Jan 01:16:55 01:25:40 80° 95° (E) 01:34:25
Gurwin Techsat 1B 31 Jan 01:27:33 01:29:17 12° 87° (E) 01:31:23 435.225
BEESAT 2 31 Jan 01:31:34 01:35:28 44° 116° (ESE) 01:39:28 435.950
Oscar 19 31 Jan 01:36:49 01:41:57 67° 101° (ESE) 01:47:03 437.125/150
AIST 2 31 Jan 01:37:40 01:40:48 21° 112° (ESE) 01:44:06 435.215
STARS 31 Jan 01:39:58 01:43:51 31° 70° (ENE) 01:47:48 437.465
M-CUBED/EXP-1 PRIME 31 Jan 01:41:48 01:44:36 19° 66° (ENE) 01:47:21 437.505
BEESAT 3 31 Jan 01:43:38 01:47:41 71° 119° (ESE) 01:51:50 437.485
SWISSCUBE 31 Jan 01:43:50 01:47:58 28° 265° (W) 01:52:03 437.505
KKS-1 31 Jan 01:49:49 01:54:14 61° 74° (ENE) 01:58:42 437.445
O/OREOS (USA 219) 31 Jan 01:51:01 01:55:38 79° 68° (ENE) 02:00:14 437.305
ITAMSAT 1 31 Jan 01:57:08 02:01:53 35° 97° (E) 02:06:41 435.822/435.867
BEESAT 31 Jan 01:59:50 02:03:32 22° 267° (W) 02:07:07 436.000
ITUPSAT 1 31 Jan 02:05:08 02:08:38 20° 267° (W) 02:12:00 437.325
ISS 31 Jan 02:07:46 02:09:38 14° 18° (NNE) 02:11:32 145.825
AUBIESAT-1 31 Jan 02:12:32 02:16:14 39° 69° (ENE) 02:19:41 437.475
PCSat 31 Jan 02:27:14 02:28:32 11° 104° (ESE) 02:30:12 145.827
Gurwin Techsat 1B 31 Jan 03:04:38 03:09:58 77° 286° (WNW) 03:15:17 435.225
RS-15 31 Jan 03:07:21 03:15:25 26° 105° (ESE) 03:23:59 29.354- 29.394
BEESAT 2 31 Jan 03:10:56 03:13:56 19° 314° (NW) 03:16:53 435.950
AIST 2 31 Jan 03:15:18 03:19:14 36° 308° (NW) 03:23:13 435.215
M-CUBED/EXP-1 PRIME 31 Jan 03:15:56 03:19:29 29° 257° (WSW) 03:22:46 437.505
DANDE 31 Jan 03:16:26 03:23:41 37° 89° (E) 03:31:26 436.750
STARS 31 Jan 03:16:48 03:20:23 23° 266° (W) 03:23:53 437.465
GONETS M04 31 Jan 03:17:16 03:23:41 21° 297° (WNW) 03:29:40
Oscar 19 31 Jan 03:17:53 03:20:49 15° 297° (WNW) 03:23:29 437.125/150
BEESAT 3 31 Jan 03:24:16 03:26:22 13° 318° (NW) 03:28:21 437.485
KKS-1 31 Jan 03:29:42 03:31:23 11° 271° (W) 03:32:46 437.445
HORYU 2 31 Jan 03:32:55 03:37:22 68° 101° (ESE) 03:41:46 437.375
CUSAT 1 31 Jan 03:34:44 03:42:40 56° 93° (E) 03:50:50 437.405
ITAMSAT 1 31 Jan 03:36:53 03:41:17 27° 292° (WNW) 03:45:35 435.822/435.867
MOZHAYETS 4 31 Jan 03:42:32 03:46:42 37° 72° (ENE) 03:50:57
ISS 31 Jan 03:43:23 03:46:40 64° 36° (NE) 03:49:56 145.825
JAS-2 31 Jan 03:43:47 03:47:40 18° 92° (E) 03:52:07 435.910
AUBIESAT-1 31 Jan 03:49:11 03:51:17 14° 262° (W) 03:53:10 437.475
